Location: Jackson
(35.6140°N, 88.8140°W)
Time: 04:37:30
(UTC-05:00)

Envisat - Visible Passes

Search period start: 19 March 2019 00:00
Search period end: 29 March 2019 00:00
Orbit: 764 x 766 km, 98.2° (Epoch: 19 March)

Date Brightness Start Highest point End Pass type
(mag) Time Alt. Az. Time Alt. Az. Time Alt. Az.
19 Mar 5.2 20:29:28 10° SSW 20:33:41 26° W 20:37:56 10° NW visible
20 Mar 3.6 19:51:47 10° S 19:56:48 63° W 20:01:51 10° NNW visible
21 Mar 5.9 20:56:46 10° SW 20:59:25 14° W 21:02:05 10° WNW visible
22 Mar 4.8 20:17:51 10° SSW 20:22:24 34° W 20:27:00 10° NNW visible
23 Mar 3.2 19:40:31 10° S 19:45:35 81° WSW 19:50:42 10° NNW visible
24 Mar 5.7 20:44:38 10° SW 20:48:07 19° W 20:51:37 10° NW visible
25 Mar 4.3 20:06:21 10° S 20:11:09 43° W 20:16:00 10° NNW visible
26 Mar 3.0 19:29:19 10° SSE 19:34:23 79° ENE 19:39:28 10° N visible
27 Mar 5.4 20:32:46 10° SSW 20:36:48 24° W 20:40:52 10° NW visible
28 Mar 3.8 19:54:57 10° S 19:59:55 56° W 20:04:55 10° NNW visible
